This is the latest recevied weather packets stored in our database for station/object ac2ev. If no packets are shown the sender has not sent any weather packets the latest 10 day(s).
| Time | Temp. | Humidity | Pressure | Rain* | Wind** | Luminosity | Snow |
|---|---|---|---|---|---|---|---|
| 1787759822 | 25° C | 59% | 1016.6 hPa | 0 mm | - | - | - |
| 1787759522 | 25° C | 63% | 1016.6 hPa | 0 mm | - | - | - |
| 1787759217 | 24.44° C | 65% | 1016.6 hPa | 0 mm | - | - | - |
| 1787758911 | 24.44° C | 63% | 1016.6 hPa | 0 mm | - | - | - |
| 1787758605 | 24.44° C | 63% | 1016.8 hPa | 0 mm | - | - | - |
| 1787758301 | 24.44° C | 64% | 1016.8 hPa | 0 mm | - | - | - |
| 1787758002 | 25° C | 62% | 1016.9 hPa | 0 mm | - | - | - |
| 1787757701 | 25° C | 63% | 1016.8 hPa | 0 mm | - | - | - |
| 1787757402 | 24.44° C | 63% | 1016.8 hPa | 0 mm | - | - | - |
| 1787757101 | 24.44° C | 65% | 1016.9 hPa | 0 mm | - | - | - |
| 1787756800 | 23.89° C | 67% | 1016.9 hPa | 0 mm | - | - | - |
| 1787756497 | 23.89° C | 68% | 1016.9 hPa | 0 mm | - | - | - |
| 1787756197 | 23.89° C | 68% | 1016.9 hPa | 0 mm | - | - | - |
| 1787755896 | 23.33° C | 71% | 1016.9 hPa | 0 mm | - | - | - |
| 1787755593 | 22.78° C | 71% | 1016.9 hPa | 0 mm | - | - | - |
| 1787755293 | 22.78° C | 71% | 1017 hPa | 0 mm | - | - | - |
| 1787754992 | 22.78° C | 71% | 1017 hPa | 0 mm | - | - | - |
| 1787754691 | 22.78° C | 73% | 1017.1 hPa | 0 mm | - | - | - |
| 1787754390 | 22.22° C | 73% | 1017.1 hPa | 0 mm | - | - | - |
| 1787754207 | 22.22° C | 73% | 1017.2 hPa | 0 mm | - | - | - |
| 1787753792 | 21.67° C | 75% | 1017.2 hPa | 0 mm | - | - | - |
| 1787753491 | 21.11° C | 77% | 1017.2 hPa | 0 mm | - | - | - |
| 1787753190 | 21.11° C | 78% | 1017.3 hPa | 0 mm | - | - | - |
| 1787752890 | 20.56° C | 79% | 1017.4 hPa | 0 mm | - | - | - |
| 1787752592 | 20.56° C | 80% | 1017.4 hPa | 0 mm | - | - | - |
* Rain latest hour (hover to see other rain measurements)
** Current wind speed in m/s (hover to see current wind gust speed)